Juan de Fuca Strait - central strait: Past 24 Hour Conditions

 

Howe Sound - Pam Rocks

03:00 PM PDT 22 October 2014
This table is a summary of hourly weather conditions for the past 24 hours.
Date / Time
(PDT)
Wind(knots) Conditions Visibility(km) Pressure(kPa) Air tempC) Relative humidity(%) Dew pointC)
22 October 2014
15:00 ESE 2 N/A N/A 100.2 14 81 10
14:00 E 3 N/A N/A 100.3 14 79 10
13:00 NNE 5 N/A N/A 100.3 14 78 10
12:00 N 6 N/A N/A 100.4 14 78 10
11:00 WNW 4 N/A N/A 100.4 14 80 11
10:00 WSW 13 N/A N/A 100.3 14 81 11
9:00 SW 20 N/A N/A 100.3 14 82 11
8:00 S 23 N/A N/A 100.2 14 78 10
7:00 SSW 27 gust 34 N/A N/A 100.1 14 78 10
6:00 S 23 gust 31 N/A N/A 100.0 14 74 10
5:00 SW 23 N/A N/A 99.9 14 73 10
4:00 SSW 28 gust 41 N/A N/A 100.0 14 78 10
3:00 S 36 gust 44 N/A N/A 99.8 14 73 9
2:00 S 40 gust 55 N/A N/A 99.9 15 70 9
1:00 S 32 gust 45 N/A N/A 99.9 15 70 9
0:00 S 30 gust 42 N/A N/A 100.0 15 69 9
21 October 2014
23:00 SSE 28 gust 42 N/A N/A 100.2 15 66 9
22:00 SSE 33 gust 43 N/A N/A 100.2 15 65 9
21:00 S 28 gust 34 N/A N/A 100.4 15 71 9
20:00 SSW 19 gust 26 N/A N/A 100.5 15 68 9
19:00 SSW 14 gust 27 N/A N/A 100.6 15 71 9
18:00 S 8 gust 21 N/A N/A 100.7 14 79 10
17:00 NNW 4 N/A N/A 100.8 12 87 10
16:00 NE 9 N/A N/A 100.8 12 86 10
15:00 W 5 N/A N/A 100.9 13 82 10
 
Map of Pacific - South Coast marine weather areas Tsawwassen Ferry Terminal South Nomad - 46036 Sentry Shoal - 46131 South Brooks - 46132 Halibut Bank - 46146 South Moresby - 46147 South Hecate Strait - 46185 West Sea Otter - 46204 La Perouse Bank - 46206 East Dellwood - 46207 Discovery Island Esquimalt Harbour Kelp Reefs Malahat Race Rocks Lightstation Saturna Island Sheringham Point University of Victoria Victoria Gonzales Victoria Int'l Airport Ballenas Islands Campbell River Airport Comox Airport Entrance Island Fanny Island Nanaimo Airport Port Hardy Airport Sisters Islets Estevan Point Sartine Island Solander Island Tofino Airport Grief Point Powell River Airport Sechelt Cape St.James Bella Bella Airport Bella Coola Airport Cathedral Point Herbert Island Point Atkinson Sand Heads Lightstation Vancouver Harbour Vancouver Int'l Airport West Vancouver Port Alberni Howe Sound - Pam Rocks Squamish Airport